Retour au catalogue

SATCOM 3 DEB

ActifHEO
NORAD 32987·DEBRIS·🇺🇸 United States

Lancé Dec 7, 1979 depuis Cape Canaveral Space Force Station

Loading…

Prochains Passages (prochaines 24 heures)

TLE

FraisSource: Space-Track

Époque: Sep 14, 2026, 11:53 UTC

1 32987U 79101N   26257.49581039 -.00000121  00000-0  00000-0 0  9993
2 32987  10.1713  21.3516 4939901 231.9243 167.8701  1.83475780124539

Suivez SATCOM 3 DEB en temps réel avec AllMySat

Download on the App Store